STARLINK-1526, 46029

Orbit data source: Space-Track

STARLINK-1526, 46029 is a payload satellite owned by SpaceX/Seattle (US) in LEO that was launched on Fri, 07 Aug 2020 UTC via an FALCON 9 launch vehicle from the Air Force Eastern Test Range (AFETR). Payload-class satellites include a variety of spacecraft equipped with specific instruments for various scientific and technological missions. These include communications satellites like Starlink; space stations such as the ISS; scientific satellites like the Hubble; Earth observation satellites from companies like Planet Labs, Umbra, and HawkEye 360; GPS; miniature CubeSats for education and research; and military/defense satellites.

Loading next visibility...
Identifier
46029, 2020-055C
Orbit
LEO
Country
Flag of USUS
Related business
Manufacturer
SpaceX/Seattle
Mission
Operational Commercial Communications
Bus & Motor
STARLINK, Unknown motor
Mass
260 kg wet, ~248 kg dry
Launch date (UTC)
2020-08-07 (5 years ago)
Launch vehicle
FALCON 9
Launch site
Air Force Eastern Test Range (AFETR)
Object type
Payload
Rocket body
Debris
Shape & HBR
Box + 1 Pan, 10.1 m
Radar Cross Section
13.562 m², Large (>1 m²)

Expand to show TLE details & history
Last TLE update: 9 hours ago

TLE from 9 hours ago
0 STARLINK-1526
1 46029U 20055C   25294.97173318  .00002987  00000-0  21937-3 0  9995
2 46029  53.0566  29.3429 0001373  89.0618 271.0528 15.06389422287982
Epoch: 2025-10-21T23:19Z
TLE epoch observation values (Epoch: 2025-10-21T23:19:17.746Z)
Latitude
-0.00006°
Longitude
8.86688°
Altitude
548.106 km
Speed
7.589 km/s
True Right ascension
01h 57m 22s
True Declination
0° 00' 00"
Sunlit
Object was in full shadow at epoch
Visualization orbit readout
Latitude
Unknown
Longitude
Unknown
Altitude
Unknown
Speed
Unknown
Apparent Right ascension
Unknown
Apparent Declination
Unknown
Sunlit
N/A
Visualization observer readout
Local Sidereal Time
03:04:54
Azimuth
Unknown
Elevation
Unknown
Doppler factor
Unknown
Orbital elements
Apogee altitude
548.465 km
Perigee altitude
546.563 km
Semi-major axis
6,925.651 km
Eccentricity
0.00014
Inclination
53.0566°
RAAN
29.3429°
Arg. of periapsis
89.0618°
True anomaly
271.03707°
Mean anomaly
271.0528°
Eccentric anomaly
271.04493°
Mean motion
3.76576 °/min
Orbital period
95.6 mins
BSTAR
0.00021937
Loading maneuver chart data...
Computing Atmospheric mass density...
Loading historical data...
Loading historical data...
Loading historical data...
Loading historical data...
Loading historical data...
Loading historical data...
Loading historical data...

Documentation

Showing up to 5 results
|